Starlink 35552

operational
NORAD ID: 66057 Int'l Des: 2025-235 Owner: SPXS Country: US Constellation: starlink
NOTLE

About Starlink 35552

Description loading...

Live Position

Loading 3D Globe...

Upcoming Passes

Altitude History

Altitude vs Time

uPlot chart will show altitude changes over time

Two-Line Element Set

1 66057U 25234E 25293.17857359 .00009887 00000-0 45195-3 0 9995
2 66057 97.5180 358.8704 0019153 274.5220 85.3827 15.20597807 166
Epoch: Oct 20, 2025 • Age: 9 hours

Current Status

Altitude 513.8 km
Velocity 7.61 km/s
Sub-Earth Point -53.88°S, 137.5°E
Launch Date Oct 19, 2025
Age 1 days
Type internet

Technical Details

Classification Payload
Mass 575.00 kg
Dry Mass 530.00 kg
Total Mass 575.00 kg
Length 0.30 m
Diameter 4.10 m
Span 29.00 m
Shape Box + pan
Manufacturer SPXS
Bus Type Starlink V2MO
Phase Status In Orbit
Owner/State SPXS/US

Large Constellations

Loading constellations...